Regional Weather Roundup
Issued by NWS Little Rock, AR

Home | Current Version | Previous Version | Text Only | Print | Product List | Glossary On
Versions: 1 2 3 4 5 6 7 8 9 10 11 12 13 14 15 16 17 18 19 20 21 22 23 24 25 26 27 28 29 30 31 32
000
ASUS44 KLZK 240105
RWRLZK

WEATHER ROUNDUP FOR ARKANSAS
NATIONAL WEATHER SERVICE LITTLE ROCK AR
800 PM CDT TUE MAY 23 2017

NOTE: "FAIR" INDICATES FEW OR NO CLOUDS BELOW 12,000 FEET WITH NO
SIGNIFICANT WEATHER AND/OR OBSTRUCTIONS TO VISIBILITY.

ARZ001-003-010-029-240200-
NORTHWEST ARKANSAS

CITY           SKY/WX    TMP DP  RH WIND       PRES   REMARKS
FAYETTEVILLE   CLOUDY    59  53  80 W6        29.80R
FORT SMITH     CLOUDY    65  52  62 W10       29.79S
HARRISON       CLOUDY    58  55  90 CALM      29.77S
BENTONVILLE    MOCLDY    63  46  55 NW7       29.80S
ROGERS         CLOUDY    61  49  64 NW7       29.80R
SILOAM SPGS    CLOUDY    61  46  59 CALM      29.80R
HIGHFILL       MOCLDY    62  50  64 W3        29.80R
SPRINGDALE     PTCLDY    63  50  63 NW6       29.81R
$$

ARZ004-005-016-240200-
NORTH CENTRAL ARKANSAS

CITY           SKY/WX    TMP DP  RH WIND       PRES   REMARKS
BATESVILLE     CLOUDY    64  57  77 W3        29.73R
FLIPPIN        CLOUDY    61  54  77 NW5       29.73R
MTN HOME       CLOUDY    61  56  83 VRB3      29.74S
$$

ARZ040-041-240200-
WEST CENTRAL ARKANSAS

CITY           SKY/WX    TMP DP  RH WIND       PRES   REMARKS
MENA           CLOUDY    64  57  77 N7        29.79R
MOUNT IDA      CLOUDY    68  54  60 NW8       29.74R
$$

ARZ009-017-025-026-028-240200-
NORTHEAST ARKANSAS

CITY           SKY/WX    TMP DP  RH WIND       PRES   REMARKS
JONESBORO      TSTM      62  59  90 SW6       29.71R
NEWPORT        LGT RAIN  61  58  90 CALM      29.73R
WALNUT RIDGE   CLOUDY    63  57  82 NW10      29.72R
BLYTHEVILLE    CLOUDY    69  57  65 NW8       29.67S
$$

ARZ022-023-033-042-044-240200-
CENTRAL ARKANSAS

CITY           SKY/WX    TMP DP  RH WIND       PRES   REMARKS
LITTLE ROCK    CLOUDY    67  56  67 N17       29.72R
N LITTLE ROCK    N/A     62  59  88 N6        29.73R
JACKSONVILLE   CLOUDY    64  61  88 CALM      29.72S
CONWAY           N/A     68  57  68 N7        29.71F
SEARCY         LGT RAIN  62  60  93 N5        29.74R
HOT SPRINGS    MOCLDY    71  57  61 VRB6      29.73R
RUSSELLVILLE   CLOUDY    65  58  78 NW8       29.74R
CLINTON        CLOUDY    63  61  94 CALM      29.74R
$$

ARZ036-240200-
EAST ARKANSAS

CITY           SKY/WX    TMP DP  RH WIND       PRES   REMARKS
WEST MEMPHIS   MOCLDY    71  58  63 VRB3      29.67R
$$

ARZ050-053-066-070-073-240200-
SOUTHWEST ARKANSAS

CITY           SKY/WX    TMP DP  RH WIND       PRES   REMARKS
ARKADELPHIA      N/A     66  62  87 SW6       29.73S
CAMDEN         RAIN      63  59  88 SW5       29.74F
TEXARKANA      CLOUDY    64  63  96 W7        29.75S
EL DORADO      RAIN      64  61  90 SW6       29.75S FOG
DE QUEEN       CLOUDY    68  58  70 NW9       29.75R
$$

ARZ056-057-069-240200-
SOUTHEAST ARKANSAS

CITY           SKY/WX    TMP DP  RH WIND       PRES   REMARKS
PINE BLUFF     CLOUDY    68  59  73 SW9       29.70S
STUTTGART      CLOUDY    72  54  53 N17G31    29.69F
MONTICELLO       N/A     63  60  90 NW6       29.71S

$$






USA.gov is the U.S. government's official web portal to all federal, state and local government web resources and services.